Regional Weather Roundup
Issued by NWS

Home | Current Version | Previous Version | Graphics & Text | Print | Product List | Glossary On
Versions: 1 2 3 4 5 6 7 8 9 10 11 12 13 14 15 16 17 18 19 20 21 22 23 24 25 26 27 28 29 30 31 32 33 34 35 36 37 38 39 40 41 42 43 44 45 46 47 48 49 50
000
ASUS43 KDTX 091610
RWRMI
MICHIGAN HOURLY REGIONAL WEATHER ROUNDUP
NATIONAL WEATHER SERVICE DETROIT/PONTIAC MI
1200 PM EDT WED JUL 09 2014

NOTE: "FAIR" INDICATES FEW OR NO CLOUDS BELOW 12,000 FEET WITH NO
SIGNIFICANT WEATHER AND/OR OBSTRUCTION TO VISIBILITY.

MIZ047>049-052>055-059>063-066>070-074>076-081>083-091700-
SOUTHEAST LOWER MICHIGAN

CITY           SKY/WX    TMP DP  RH WIND       PRES   REMARKS
ADRIAN         MOSUNNY   72  58  61 NW12G17   29.92R
ALMA           PTSUNNY   65  51  60 NW8       29.93R
ANN ARBOR      PTSUNNY   72  58  61 NW10      29.90R
BAD AXE        PTSUNNY   65  49  55 W5        29.90S
DETROIT CITY   PTSUNNY   73  55  53 VRB7      29.90R
DETROIT        PTSUNNY   73  59  61 VRB7      29.90R
FLINT          PTSUNNY   68  51  54 NW10      29.91R
GROSSE ILE     PTSUNNY   73  59  60 NW6       29.89R
HILLSDALE      MOSUNNY   73  59  61 NW14      29.92R
HOWELL         MOSUNNY   67  55  64 NW7       29.92R

CITY           SKY/WX    TMP DP  RH WIND       PRES   REMARKS
JACKSON        PTSUNNY   71  58  63 NW8       29.92R
LAMBERTVILLE   MOSUNNY   77  57  50 W9        29.91R
LANSING        PTSUNNY   69  57  65 NW8       29.92R
LAPEER         NOT AVBL
MASON          PTSUNNY   67  57  69 W7        29.92R
MONROE         MOSUNNY   75  59  57 W8        29.89R
MT. CLEMENS    PTSUNNY   69  54  60 NW8       29.89R
PONTIAC        PTSUNNY   67  51  56 NW12      29.91R
PORT HOPE        N/A     66  51  58 VRB3      29.88R
PORT HURON     CLOUDY    66  54  63 NW7       29.91R
TRI CITIES     CLOUDY    66  52  60 W10       29.92R
YPSILANTI      PTSUNNY   73  58  59 NW8       29.91R
$$
MIZ043>046-050>051-056>058-064>065-071>073-077>080-091700-
SOUTHWEST LOWER MICHIGAN

CITY           SKY/WX    TMP DP  RH WIND       PRES   REMARKS
BATTLE CREEK   PTSUNNY   70  56  61 NW8       29.93R
BENTON HARBOR  SUNNY     67  57  70 VRB5      29.95R
BIG RAPIDS     CLOUDY    63  52  67 NW6       29.93R
COLDWATER      PTSUNNY   73  61  64 NW8       29.92S
HOLLAND        PTSUNNY   70  57  63 W7        29.95R
GRAND RAPIDS   PTSUNNY   68  55  63 W10       29.93R
KALAMAZOO      MOSUNNY   71  58  63 N9        29.93R
MARSHALL       PTSUNNY   69  58  65 W10       29.92R
MUSKEGON       MOSUNNY   67  53  61 VRB6      29.94R
$$
MIZ016>042-091700-
NORTHERN LOWER MICHIGAN

CITY           SKY/WX    TMP DP  RH WIND       PRES   REMARKS
ALPENA         CLOUDY    65  47  52 W10G16    29.88R
BEAVER ISLAND  CLOUDY    59  54  83 W10       29.91R
BELLAIRE       MOSUNNY   64  49  57 W6        29.91R
CADILLAC         N/A    N/A N/A N/A MISG        N/A
CHARLEVOIX     PTSUNNY   62  53  72 W8        29.94R
FRANKFORT      SUNNY     61  53  74 W8        29.93R
GAYLORD        PTSUNNY   60  47  61 W9        29.90R
GRAYLING       PTSUNNY   63  49  59 W10       29.91R
HARBOR SPRINGS CLOUDY    59  53  81 SW8       29.89R
HOUGHTON LAKE  PTSUNNY   63  48  58 W9        29.92R
MANISTEE       PTSUNNY   63  52  67 W9        29.94S
OSCODA         CLOUDY    69  47  44 NW6       29.88R
PELLSTON       CLOUDY    64  47  53 W10       29.89R
TRAVERSE CITY  PTSUNNY   66  50  56 W9        29.90R
$$
MIZ007>008-015-091700-
EASTERN UPPER MICHIGAN

CITY           SKY/WX    TMP DP  RH WIND       PRES   REMARKS
KINROSS        CLOUDY    63  48  59 NW10      29.86R
MACKINAC ISLAN CLOUDY    58  51  75 W10       29.88R
NEWBERRY       CLOUDY    57  51  80 NW10      29.88R
S. S. MARIE    MOSUNNY   59  49  69 W8        29.85R
$$
MIZ004>006-011>014-085-091700-
CENTRAL UPPER MICHIGAN

CITY           SKY/WX    TMP DP  RH WIND       PRES   REMARKS
MANISTIQUE     CLOUDY    62  52  70 N3        29.89R
ESCANABA       CLOUDY    61  52  72 W7        29.91R
MENOMINEE      PTSUNNY   64  52  63 N8        29.90S
$$
MIZ001>003-009>011-084-091700-
WESTERN UPPER MICHIGAN

CITY           SKY/WX    TMP DP  RH WIND       PRES   REMARKS
IRON MOUNTAIN  MOSUNNY   63  51  65 NW9       29.91S
HOUGHTON       CLOUDY    57  48  72 NW14      29.93R
COPPER HARBOR    N/A     58  48  69 N15       29.90R
$$

ABBREVIATIONS USED IN REMARKS
   TC - TEMPERATURE IN CELSIUS
  WCI - WIND CHILL INDEX
   HX - HEAT INDEX
  VSB - VISIBILITY



USA.gov is the U.S. government's official web portal to all federal, state and local government web resources and services.